Meteo pe oră la Aliseda

Astăzi, 20 Ianuarie, Miercuri

Timp Temperatura Precipitaţii Vânt Presiune Umiditate
00:00 +7°C° 0 mm 4 m/s 723 mmHg 88%
01:00 +7°C° 0 mm 4 m/s 722 mmHg 87%
02:00 +7°C° 0 mm 5 m/s 721 mmHg 87%
03:00 +7°C° 0 mm 5 m/s 720 mmHg 86%
04:00 +7°C° 2.9 mm 5 m/s 719 mmHg 89%
05:00 +7°C° 2.9 mm 5 m/s 719 mmHg 92%
06:00 +7°C° 2.9 mm 5 m/s 718 mmHg 96%
07:00 +8°C° 0.6 mm 5 m/s 718 mmHg 95%
08:00 +8°C° 0.6 mm 5 m/s 718 mmHg 95%
09:00 +9°C° 0.6 mm 5 m/s 717 mmHg 95%
10:00 +10°C° 0.2 mm 5 m/s 718 mmHg 89%
11:00 +11°C° 0.2 mm 6 m/s 718 mmHg 84%
12:00 +13°C° 0.2 mm 6 m/s 718 mmHg 79%
13:00 +11°C° 0.6 mm 6 m/s 718 mmHg 80%
14:00 +11°C° 0.6 mm 7 m/s 717 mmHg 82%
15:00 +11°C° 0.6 mm 7 m/s 717 mmHg 84%
16:00 +10°C° 0.3 mm 6 m/s 717 mmHg 86%
17:00 +9°C° 0.3 mm 6 m/s 717 mmHg 89%
18:00 +8°C° 0.3 mm 5 m/s 718 mmHg 92%
19:00 +8°C° 0.5 mm 5 m/s 718 mmHg 93%
20:00 +9°C° 0.5 mm 5 m/s 719 mmHg 93%
21:00 +9°C° 0.5 mm 5 m/s 719 mmHg 94%
22:00 +9°C° 0.1 mm 5 m/s 720 mmHg 94%
23:00 +10°C° 0.1 mm 4 m/s 720 mmHg 94%

Mâine, 21 Ianuarie, Joi

Timp Temperatura Precipitaţii Vânt Presiune Umiditate
00:00 +8°C° 0.1 mm 4 m/s 721 mmHg 94%
01:00 +8°C° 0.1 mm 4 m/s 721 mmHg 94%
02:00 +8°C° 0.1 mm 4 m/s 721 mmHg 95%
03:00 +8°C° 0.1 mm 4 m/s 721 mmHg 95%
04:00 +8°C° 0.1 mm 4 m/s 722 mmHg 95%
05:00 +8°C° 0.1 mm 4 m/s 722 mmHg 95%
06:00 +8°C° 0.1 mm 4 m/s 722 mmHg 95%
07:00 +8°C° 0 mm 4 m/s 723 mmHg 95%
08:00 +8°C° 0 mm 5 m/s 723 mmHg 94%
09:00 +8°C° 0 mm 5 m/s 723 mmHg 93%
10:00 +9°C° 0 mm 5 m/s 723 mmHg 93%
11:00 +9°C° 0 mm 5 m/s 723 mmHg 92%
12:00 +10°C° 0 mm 6 m/s 723 mmHg 91%
13:00 +10°C° 0.1 mm 6 m/s 722 mmHg 89%
14:00 +11°C° 0.1 mm 7 m/s 722 mmHg 86%
15:00 +12°C° 0.1 mm 7 m/s 721 mmHg 84%
16:00 +11°C° 0.4 mm 7 m/s 721 mmHg 87%
17:00 +11°C° 0.4 mm 7 m/s 721 mmHg 91%
18:00 +11°C° 0.4 mm 6 m/s 721 mmHg 94%
19:00 +10°C° 0.5 mm 6 m/s 721 mmHg 94%
20:00 +10°C° 0.5 mm 5 m/s 721 mmHg 95%
21:00 +11°C° 0.5 mm 4 m/s 721 mmHg 95%
22:00 +10°C° 0.1 mm 5 m/s 721 mmHg 95%
23:00 +10°C° 0.1 mm 5 m/s 720 mmHg 95%

Poimâine, 22 Ianuarie, Vineri

Timp Temperatura Precipitaţii Vânt Presiune Umiditate
00:00 +10°C° 0.1 mm 5 m/s 720 mmHg 95%
01:00 +10°C° 0.1 mm 6 m/s 720 mmHg 95%
02:00 +10°C° 0.1 mm 6 m/s 719 mmHg 94%
03:00 +10°C° 0.1 mm 7 m/s 719 mmHg 93%
04:00 +9°C° 0.3 mm 7 m/s 719 mmHg 90%
05:00 +9°C° 0.3 mm 7 m/s 719 mmHg 88%
06:00 +7°C° 0.3 mm 8 m/s 719 mmHg 85%
07:00 +8°C° 0.1 mm 7 m/s 720 mmHg 85%
08:00 +8°C° 0.1 mm 7 m/s 720 mmHg 85%
09:00 +6°C° 0.1 mm 7 m/s 721 mmHg 85%
10:00 +7°C° 0.1 mm 8 m/s 721 mmHg 80%
11:00 +9°C° 0.1 mm 8 m/s 721 mmHg 74%
12:00 +8°C° 0.1 mm 9 m/s 722 mmHg 68%
13:00 +8°C° 0.3 mm 9 m/s 722 mmHg 72%
14:00 +7°C° 0.3 mm 8 m/s 722 mmHg 75%
15:00 +6°C° 0.3 mm 8 m/s 722 mmHg 79%
16:00 +6°C° 0.1 mm 7 m/s 722 mmHg 82%
17:00 +6°C° 0.1 mm 5 m/s 723 mmHg 85%
18:00 +5°C° 0.1 mm 4 m/s 723 mmHg 87%
19:00 +5°C° 0 mm 3 m/s 723 mmHg 89%
20:00 +4°C° 0 mm 3 m/s 724 mmHg 91%
21:00 +4°C° 0 mm 3 m/s 724 mmHg 93%
22:00 +4°C° 0 mm 3 m/s 724 mmHg 94%
23:00 +3°C° 0 mm 3 m/s 725 mmHg 95%

23 Ianuarie, Sâmbătă

Timp Temperatura Precipitaţii Vânt Presiune Umiditate
00:00 +3°C° 0 mm 3 m/s 725 mmHg 96%
01:00 +3°C° 0 mm 3 m/s 725 mmHg 96%
02:00 +3°C° 0 mm 3 m/s 725 mmHg 96%
03:00 +4°C° 0 mm 4 m/s 725 mmHg 96%
04:00 +3°C° 0 mm 3 m/s 724 mmHg 96%
05:00 +3°C° 0 mm 3 m/s 724 mmHg 95%
06:00 +3°C° 0 mm 3 m/s 724 mmHg 95%
07:00 +4°C° 0 mm 3 m/s 724 mmHg 93%
08:00 +4°C° 0 mm 4 m/s 724 mmHg 91%
09:00 +5°C° 0 mm 4 m/s 724 mmHg 89%
10:00 +6°C° 0 mm 4 m/s 724 mmHg 88%
11:00 +7°C° 0 mm 5 m/s 724 mmHg 86%
12:00 +8°C° 0 mm 5 m/s 724 mmHg 84%
13:00 +8°C° 0.1 mm 6 m/s 723 mmHg 84%
14:00 +9°C° 0.1 mm 6 m/s 722 mmHg 84%
15:00 +9°C° 0.1 mm 7 m/s 721 mmHg 84%
16:00 +9°C° 0.1 mm 7 m/s 721 mmHg 85%
17:00 +9°C° 0.1 mm 7 m/s 721 mmHg 87%
18:00 +9°C° 0.1 mm 7 m/s 720 mmHg 89%
19:00 +9°C° 0.5 mm 7 m/s 720 mmHg 91%
20:00 +10°C° 0.5 mm 7 m/s 720 mmHg 92%
21:00 +10°C° 0.5 mm 7 m/s 720 mmHg 93%
22:00 +10°C° 0.8 mm 6 m/s 720 mmHg 93%
23:00 +9°C° 0.8 mm 5 m/s 720 mmHg 92%

24 Ianuarie, Duminică

Timp Temperatura Precipitaţii Vânt Presiune Umiditate
00:00 +8°C° 0.8 mm 4 m/s 720 mmHg 91%
01:00 +7°C° 0 mm 4 m/s 721 mmHg 93%
02:00 +7°C° 0 mm 4 m/s 721 mmHg 94%
03:00 +7°C° 0 mm 3 m/s 721 mmHg 95%
04:00 +7°C° 0 mm 3 m/s 721 mmHg 96%
05:00 +7°C° 0 mm 3 m/s 721 mmHg 96%
06:00 +7°C° 0 mm 3 m/s 722 mmHg 97%
07:00 +7°C° 0 mm 3 m/s 722 mmHg 96%
08:00 +7°C° 0 mm 3 m/s 723 mmHg 96%
09:00 +8°C° 0 mm 3 m/s 723 mmHg 95%
10:00 +9°C° 0 mm 3 m/s 724 mmHg 90%
11:00 +10°C° 0 mm 3 m/s 724 mmHg 84%
12:00 +11°C° 0 mm 4 m/s 724 mmHg 78%
13:00 +11°C° 0 mm 4 m/s 724 mmHg 76%
14:00 +12°C° 0 mm 4 m/s 723 mmHg 74%
15:00 +12°C° 0 mm 4 m/s 723 mmHg 71%
16:00 +11°C° 0 mm 3 m/s 723 mmHg 75%
17:00 +10°C° 0 mm 3 m/s 723 mmHg 80%
18:00 +9°C° 0 mm 2 m/s 723 mmHg 84%
19:00 +9°C° 0 mm 2 m/s 724 mmHg 85%
20:00 +8°C° 0 mm 2 m/s 724 mmHg 86%
21:00 +8°C° 0 mm 2 m/s 724 mmHg 87%
22:00 +8°C° 0 mm 2 m/s 724 mmHg 88%
23:00 +9°C° 0 mm 1 m/s 724 mmHg 89%

25 Ianuarie, Luni

Timp Temperatura Precipitaţii Vânt Presiune Umiditate
00:00 +8°C° 0 mm 1 m/s 724 mmHg 90%
01:00 +8°C° 0 mm 1 m/s 724 mmHg 91%
02:00 +8°C° 0 mm 1 m/s 724 mmHg 92%
03:00 +8°C° 0 mm 1 m/s 724 mmHg 93%
04:00 +7°C° 0 mm 1 m/s 724 mmHg 94%
05:00 +7°C° 0 mm 1 m/s 724 mmHg 94%
06:00 +5°C° 0 mm 0 m/s 724 mmHg 95%
07:00 +7°C° 0 mm 1 m/s 725 mmHg 94%
08:00 +8°C° 0 mm 1 m/s 725 mmHg 93%
09:00 +9°C° 0 mm 1 m/s 725 mmHg 91%
10:00 +10°C° 0 mm 1 m/s 726 mmHg 90%
11:00 +10°C° 0 mm 1 m/s 726 mmHg 89%
12:00 +11°C° 0 mm 1 m/s 726 mmHg 88%
13:00 +12°C° 0 mm 1 m/s 726 mmHg 88%
14:00 +12°C° 0 mm 1 m/s 726 mmHg 89%
15:00 +13°C° 0 mm 2 m/s 725 mmHg 89%
16:00 +13°C° 0 mm 1 m/s 726 mmHg 91%
17:00 +12°C° 0 mm 1 m/s 726 mmHg 94%
18:00 +12°C° 0 mm 1 m/s 726 mmHg 96%
19:00 +12°C° 0.1 mm 1 m/s 726 mmHg 96%
20:00 +12°C° 0.1 mm 1 m/s 727 mmHg 97%
21:00 +12°C° 0.1 mm 1 m/s 727 mmHg 97%
22:00 +12°C° 0.1 mm 1 m/s 728 mmHg 97%
23:00 +11°C° 0.1 mm 1 m/s 728 mmHg 98%
Arată mai mult

Formular de consimțământ

Meteoprog și furnizorii noștri de servicii pot stoca și accesa date personale, precum cookies, identificatori de dispozitiv sau alte tehnologii similare pe dispozitivul dumneavoastră și procesa astfel de date pentru a personaliza conținutul și reclamele, dar și pentru a oferi caracteristici de social media și pentru a analiza traficul.

  • Stocarea și/sau accesarea informațiilor pe dispozitivul dumneavoastră

    Cookies, identificatori de dispozitiv sau alte informații pot fi stocate sau accesate pe dispozitiv în scopurile indicate mai sus.

  • Reclame și conținut personalizat, evaluarea reclamelor și a conținutului, informații despre audiențe și dezvoltarea produselor

    Reclamele și conținutul pot fi personalizate pe baza unui profil. Pot fi adăugate date suplimentare pentru a personaliza mai bine reclamele și conținutul. Performanța reclamelor și conținutului poate fi măsurată. Pot fi obținute informații despre utilizatorii care au văzut reclamele și conținutul. Aceste date pot fi utilizate pentru a dezvolta sau îmbunătăți experiența utilizatorilor, sistemele și software-ul.

Dând clic pe ‘Sunt de acord’, permiteți utilizarea cookie-urilor menționate, a identificatorilor de dispozitiv, balizelor web sau altor tehnologii similare. Setările pot fi modificate din browser-ul dispozitivului dumneavoastră.

În anumite scopuri, interesele legitime pot prima asupra consimțământului. Puteți citi mai multe informații în acest sens în Politica privind Confidențialitatea Datelor și Cookie.